Location: Newark
(47.2333°N, 7.7667°E)
Time: 23:49:03
(UTC+00:00)

ISS - Visible Passes

Search period start: 19 February 2020 00:00
Search period end: 29 February 2020 00:00
Orbit: 416 x 422 km, 51.6° (Epoch: 20 February)

Date Brightness Start Highest point End Pass type
(mag) Time Alt. Az. Time Alt. Az. Time Alt. Az.
20 Feb -0.7 05:42:34 10° S 05:44:34 15° SE 05:46:35 10° E visible
22 Feb -2.1 05:42:40 10° SSW 05:45:46 34° SE 05:48:53 10° ENE visible
23 Feb -1.5 04:55:32 10° SSW 04:58:15 23° SE 05:00:58 10° E visible
24 Feb -1.1 04:09:39 13° SSE 04:10:47 15° SE 04:12:45 10° E visible
24 Feb -3.6 05:43:44 10° WSW 05:47:07 79° SSE 05:50:30 10° ENE visible
25 Feb -3.1 04:57:15 18° SW 04:59:29 53° SSE 05:02:47 10° ENE visible
26 Feb -2.5 04:11:44 34° SSE 04:11:53 34° SE 04:14:59 10° ENE visible
26 Feb -3.5 05:45:15 10° W 05:48:35 56° NNW 05:51:56 10° ENE visible
27 Feb -0.8 03:26:06 15° E 03:26:06 15° E 03:27:02 10° E visible
27 Feb -3.8 04:59:03 25° WSW 05:00:51 75° NNW 05:04:14 10° ENE visible
28 Feb -3.7 04:13:19 74° ESE 04:13:19 74° ESE 04:16:32 10° ENE visible
